Weather History for Litchfield, MN

Change the Weather History Date:

Wednesday, May 28, 2014

  Actual Average Record
Temperature  
Mean Temperature 68 °F -  
Max Temperature 80 °F 75 °F 96 °F (1969)
Min Temperature 57 °F 52 °F 34 °F (1965)
Cooling Degree Days 4    
Growing Degree Days 18 (Base 50)    
Moisture  
Dew Point 58 °F    
Average Humidity 70    
Maximum Humidity 94    
Minimum Humidity 42    
Precipitation  
Precipitation 0.00 in - - ()
Sea Level Pressure  
Sea Level Pressure 30.06 in    
Wind  
Wind Speed 4 mph (ENE)    
Max Wind Speed 12 mph    
Max Gust Speed -    
Visibility 10 miles    
Events      
Averages and records for this station are not official NWS values.
T = Trace of Precipitation, MM = Missing Value Source: NWS Daily Summary

Daily Weather History Graph

Daily Weather History Graph

Search for Another Location

Airport:

Trip Planner

Search our weather history database for the weather conditions in past years. The results will help you decide how hot, cold, wet, or windy it might be!

Date:

Astronomy

May. 28, 2014 Rise Set
Actual Time 5:36 AM CDT 8:54 PM CDT
Civil Twilight 5:00 AM CDT 9:30 PM CDT
Nautical Twilight 4:13 AM CDT 10:17 PM CDT
Astronomical Twilight 3:15 AM CDT 11:16 PM CDT
Moon 5:46 AM CDT (5/28) 8:50 PM CDT (5/28)
Length of Visible Light 16h 29m
Length of Day
15h 17m
Waning Crescent, 0% of the Moon is Illuminated
May 28
Waning Crescent
May 28
New
Jun 5
First Quarter
Jun 12
Full
Jun 19
Last Quarter

Hourly Weather History & Observations

Time (CDT) Temp. Heat Index Dew Point Humidity Pressure Visibility Wind Dir Wind Speed Gust Speed Precip Events Conditions
12:12 AM 62.6 °F - 60.8 °F 94% 30.02 in 10.0 mi East 3.5 mph - N/A   Clear
12:33 AM 62.6 °F - 60.8 °F 94% 30.01 in 10.0 mi ENE 3.5 mph - N/A   Clear
12:53 AM 62.6 °F - 60.8 °F 94% 30.01 in 10.0 mi ENE 6.9 mph - N/A   Clear
1:12 AM 62.6 °F - 60.8 °F 94% 30.01 in 10.0 mi ENE 4.6 mph - N/A   Clear
1:33 AM 62.6 °F - 60.8 °F 94% 30.01 in 10.0 mi NE 4.6 mph - N/A   Scattered Clouds
1:53 AM 62.6 °F - 57.2 °F 82% 30.01 in 10.0 mi ENE 5.8 mph - N/A   Scattered Clouds
2:13 AM 62.6 °F - 55.4 °F 77% 30.01 in 10.0 mi NE 5.8 mph - N/A   Clear
2:33 AM 60.8 °F - 55.4 °F 82% 30.01 in 10.0 mi ENE 3.5 mph - N/A   Clear
2:53 AM 60.8 °F - 55.4 °F 82% 30.02 in 10.0 mi ENE 3.5 mph - N/A   Scattered Clouds
3:13 AM 60.8 °F - 55.4 °F 82% 30.02 in 10.0 mi Calm Calm - N/A   Clear
3:33 AM 60.8 °F - 53.6 °F 77% 30.02 in 10.0 mi ENE 4.6 mph - N/A   Clear
3:53 AM 59.0 °F - 53.6 °F 82% 30.03 in 10.0 mi NE 3.5 mph - N/A   Clear
4:13 AM 59.0 °F - 53.6 °F 82% 30.02 in 10.0 mi Calm Calm - N/A   Clear
4:33 AM 57.2 °F - 53.6 °F 88% 30.03 in 10.0 mi ENE 3.5 mph - N/A   Scattered Clouds
4:53 AM 57.2 °F - 53.6 °F 88% 30.04 in 10.0 mi NE 4.6 mph - N/A   Scattered Clouds
5:13 AM 57.2 °F - 51.8 °F 82% 30.04 in 10.0 mi NNE 3.5 mph - N/A   Clear
5:32 AM 57.2 °F - 53.6 °F 88% 30.04 in 10.0 mi North 3.5 mph - N/A   Clear
5:53 AM 57.2 °F - 53.6 °F 88% 30.04 in 10.0 mi NE 3.5 mph - N/A   Scattered Clouds
6:13 AM 57.2 °F - 53.6 °F 88% 30.05 in 10.0 mi NE 4.6 mph - N/A   Scattered Clouds
6:33 AM 57.2 °F - 53.6 °F 88% 30.06 in 10.0 mi NNE 4.6 mph - N/A   Scattered Clouds
6:53 AM 57.2 °F - 53.6 °F 88% 30.06 in 10.0 mi North 3.5 mph - N/A   Clear
7:13 AM 60.8 °F - 55.4 °F 82% 30.06 in 10.0 mi NE 4.6 mph - N/A   Clear
7:32 AM 60.8 °F - 55.4 °F 82% 30.07 in 10.0 mi NE 4.6 mph - N/A   Clear
7:53 AM 62.6 °F - 55.4 °F 77% 30.07 in 10.0 mi NNE 4.6 mph - N/A   Clear
8:13 AM 62.6 °F - 55.4 °F 77% 30.07 in 10.0 mi ENE 4.6 mph - N/A   Clear
8:53 AM 64.4 °F - 55.4 °F 73% 30.08 in 10.0 mi ENE 4.6 mph - N/A   Clear
9:13 AM 66.2 °F - 57.2 °F 73% 30.08 in 10.0 mi NE 3.5 mph - N/A   Clear
9:33 AM 66.2 °F - 57.2 °F 73% 30.08 in 10.0 mi North 3.5 mph - N/A   Clear
9:53 AM 68.0 °F - 57.2 °F 68% 30.09 in 10.0 mi NE 4.6 mph - N/A   Clear
10:12 AM 69.8 °F - 59.0 °F 68% 30.08 in 10.0 mi East 5.8 mph - N/A   Clear
10:33 AM 71.6 °F - 60.8 °F 69% 30.09 in 10.0 mi East 3.5 mph - N/A   Clear
10:52 AM 71.6 °F - 62.6 °F 73% 30.09 in 10.0 mi East 4.6 mph - N/A   Clear
11:13 AM 73.4 °F - 64.4 °F 73% 30.09 in 10.0 mi East 5.8 mph - N/A   Clear
11:52 AM 73.4 °F - 64.4 °F 73% 30.09 in 10.0 mi ESE 6.9 mph - N/A   Clear
12:13 PM 75.2 °F - 64.4 °F 69% 30.09 in 10.0 mi East 6.9 mph - N/A   Clear
12:33 PM 75.2 °F - 64.4 °F 69% 30.09 in 10.0 mi ENE 6.9 mph - N/A   Clear
1:13 PM 77.0 °F - 64.4 °F 65% 30.09 in 10.0 mi ENE 5.8 mph - N/A   Clear
1:52 PM 78.8 °F - 64.4 °F 61% 30.09 in 10.0 mi East 9.2 mph - N/A   Scattered Clouds
2:13 PM 78.8 °F - 64.4 °F 61% 30.08 in 10.0 mi East 9.2 mph - N/A   Scattered Clouds
2:32 PM 78.8 °F - 64.4 °F 61% 30.08 in 10.0 mi East 4.6 mph - N/A   Scattered Clouds
2:53 PM 78.8 °F - 64.4 °F 61% 30.08 in 10.0 mi ESE 11.5 mph - N/A   Scattered Clouds
3:13 PM 80.6 °F 81.8 °F 62.6 °F 54% 30.08 in 10.0 mi East 8.1 mph - N/A   Scattered Clouds
3:32 PM 80.6 °F 81.5 °F 60.8 °F 51% 30.08 in 10.0 mi East 8.1 mph - N/A   Scattered Clouds
3:53 PM 80.6 °F 81.5 °F 60.8 °F 51% 30.07 in 10.0 mi East 10.4 mph - N/A   Scattered Clouds
4:13 PM 80.6 °F 81.1 °F 59.0 °F 48% 30.07 in 10.0 mi ENE 3.5 mph - N/A   Clear
4:32 PM 80.6 °F 81.1 °F 59.0 °F 48% 30.07 in 10.0 mi ESE 5.8 mph - N/A   Clear
5:13 PM 80.6 °F 80.8 °F 57.2 °F 45% 30.07 in 10.0 mi Calm Calm - N/A   Scattered Clouds
5:32 PM 80.6 °F 81.1 °F 59.0 °F 48% 30.06 in 10.0 mi ENE 6.9 mph - N/A   Scattered Clouds
6:13 PM 80.6 °F 81.1 °F 59.0 °F 48% 30.06 in 10.0 mi ENE 4.6 mph - N/A   Clear
6:32 PM 80.6 °F 80.5 °F 55.4 °F 42% 30.05 in 10.0 mi Calm Calm - N/A   Clear
6:53 PM 80.6 °F 80.8 °F 57.2 °F 45% 30.05 in 10.0 mi East 3.5 mph - N/A   Scattered Clouds
7:13 PM 78.8 °F - 57.2 °F 47% 30.06 in 10.0 mi East 5.8 mph - N/A   Scattered Clouds
7:32 PM 78.8 °F - 57.2 °F 47% 30.06 in 10.0 mi East 4.6 mph - N/A   Clear
7:53 PM 78.8 °F - 57.2 °F 47% 30.06 in 7.0 mi ENE 5.8 mph - N/A   Clear
8:13 PM 77.0 °F - 57.2 °F 50% 30.07 in 10.0 mi East 3.5 mph - N/A   Clear
8:33 PM 75.2 °F - 57.2 °F 53% 30.07 in 10.0 mi ENE 3.5 mph - N/A   Clear
8:52 PM 73.4 °F - 57.2 °F 57% 30.08 in 10.0 mi Calm Calm - N/A   Clear
9:13 PM 73.4 °F - 57.2 °F 57% 30.08 in 10.0 mi Calm Calm - N/A   Clear
9:33 PM 71.6 °F - 57.2 °F 60% 30.08 in 10.0 mi Calm Calm - N/A   Clear
9:52 PM 71.6 °F - 57.2 °F 60% 30.08 in 10.0 mi ESE 3.5 mph - N/A   Clear
10:13 PM 69.8 °F - 60.8 °F 73% 30.08 in 10.0 mi East 4.6 mph - N/A   Clear
10:52 PM 68.0 °F - 57.2 °F 68% 30.08 in 10.0 mi Calm Calm - N/A   Clear
11:13 PM 68.0 °F - 60.8 °F 78% 30.08 in 10.0 mi Calm Calm - N/A   Clear
11:33 PM 66.2 °F - 62.6 °F 88% 30.08 in 10.0 mi Calm Calm - N/A   Clear
11:52 PM 66.2 °F - 60.8 °F 83% 30.08 in 10.0 mi Calm Calm - N/A   Clear